Вернуться в каталог

MIDAS 5 DEB

АктивенPO
NORAD 273·DEBRIS·🇺🇸 United States

Запущен Apr 9, 1962 с Vandenberg Space Force Base

Loading…

Ближайшие Пролёты (ближайшие 24 часа)

TLE

СвежийSource: Space-Track

Эпоха: Sep 9, 2026, 02:17 UTC

1 00273U 62010C   26252.09580703  .00000006  00000-0  16800-3 0  9994
2 00273  86.6439 284.6957 0329771 115.6912 247.8430  9.43836095219204

Отслеживайте MIDAS 5 DEB в реальном времени с AllMySat

Download on the App Store